Weather History for Bishop, CA

Change the Weather History Date:

Sunday, February 17, 2013

  Actual Average Record
Temperature  
Mean Temperature 42 °F 43 °F  
Max Temperature 68 °F 58 °F 77 °F (1977)
Min Temperature 16 °F 27 °F 12 °F (1960)
Degree Days  
Heating Degree Days 23 22  
Month to date heating degree days 381 406  
Since 1 July heating degree days 2923 2975  
Cooling Degree Days 0 0  
Month to date cooling degree days 0 0  
Year to date cooling degree days 0 0  
Moisture  
Dew Point -1 °F    
Average Humidity 27    
Maximum Humidity 49    
Minimum Humidity 4    
Precipitation  
Precipitation 0.00 in 0.03 in 0.28 in (1980)
Month to date precipitation 0.00 0.50  
Year to date precipitation T 1.55  
Snow  
Snow 0.00 in 0.00 in 0.10 in (2006)
Month to date snowfall 0.0 0.1  
Since 1 July snowfall 2.8 5.9  
Snow Depth 0.00 in    
Sea Level Pressure  
Sea Level Pressure 29.92 in    
Wind  
Wind Speed 6 mph (NNW)    
Max Wind Speed 20 mph    
Max Gust Speed 25 mph    
Visibility 10 miles    
Events      
T = Trace of Precipitation, MM = Missing Value Source: NWS Daily Summary

Daily Weather History Graph

Daily Weather History Graph

Search for Another Location

Airport:

Trip Planner

Search our weather history database for the weather conditions in past years. The results will help you decide how hot, cold, wet, or windy it might be!

Date:

Astronomy

Feb. 17, 2013 Rise Set
Actual Time 6:39 AM PST 5:35 PM PST
Civil Twilight 6:13 AM PST 6:02 PM PST
Nautical Twilight 5:42 AM PST 6:32 PM PST
Astronomical Twilight 5:12 AM PST 7:02 PM PST
Moon 10:46 AM PST (2/17) 12:25 AM PST (2/17)
Length of Visible Light 11h 49m
Length of Day
10h 55m
Waxing Crescent, 50% of the Moon is Illuminated
Feb 17
Waxing Crescent
Feb 17
First Quarter
Feb 25
Full
Mar 4
Last Quarter
Mar 11
New

Hourly Weather History & Observations

Time (PST) Temp. Windchill Dew Point Humidity Pressure Visibility Wind Dir Wind Speed Gust Speed Precip Events Conditions
12:56 AM 26.1 °F 18.4 °F 1.9 °F 35% 30.00 in 10.0 mi NNE 6.9 mph - N/A   Clear
1:56 AM 26.1 °F 20.5 °F 1.9 °F 35% 29.98 in 10.0 mi West 4.6 mph - N/A   Clear
2:56 AM 23.0 °F 18.4 °F 1.0 °F 39% 29.96 in 10.0 mi NW 3.5 mph - N/A   Clear
3:56 AM 25.0 °F 19.3 °F 1.9 °F 37% 29.94 in 10.0 mi WNW 4.6 mph - N/A   Clear
4:56 AM 19.0 °F 13.9 °F 1.9 °F 47% 29.96 in 10.0 mi NNE 3.5 mph - N/A   Clear
5:56 AM 18.0 °F 11.1 °F 1.0 °F 48% 29.97 in 10.0 mi NNW 4.6 mph - N/A   Clear
6:56 AM 21.9 °F 12.5 °F 1.0 °F 40% 29.99 in 10.0 mi NNW 8.1 mph - N/A   Clear
7:56 AM 34.0 °F 31.0 °F 5.0 °F 30% 29.97 in 10.0 mi North 3.5 mph - N/A   Clear
8:56 AM 42.1 °F - 1.9 °F 19% 29.97 in 10.0 mi Calm Calm - N/A   Clear
9:56 AM 53.1 °F - -0.0 °F 11% 29.94 in 10.0 mi WNW 9.2 mph - N/A   Clear
10:56 AM 57.9 °F - -2.9 °F 8% 29.92 in 10.0 mi Variable 3.5 mph - N/A   Clear
11:56 AM 62.1 °F - -5.1 °F 7% 29.89 in 10.0 mi WNW 8.1 mph - N/A   Clear
12:56 PM 64.9 °F - -9.9 °F 5% 29.86 in 10.0 mi NW 11.5 mph 16.1 mph N/A   Clear
1:56 PM 64.9 °F - -11.0 °F 4% 29.83 in 10.0 mi Variable 6.9 mph - N/A   Clear
2:56 PM 66.0 °F - -15.0 °F 4% 29.83 in 10.0 mi West 9.2 mph - N/A   Clear
3:56 PM 66.0 °F - -15.0 °F 4% 29.81 in 10.0 mi North 13.8 mph 24.2 mph N/A   Clear
4:56 PM 62.1 °F - -9.0 °F 5% 29.84 in 10.0 mi North 13.8 mph 24.2 mph N/A   Clear
5:56 PM 55.0 °F - -6.0 °F 8% 29.88 in 10.0 mi NNW 12.7 mph - N/A   Clear
6:56 PM 48.0 °F - -0.0 °F 14% 29.91 in 10.0 mi Calm Calm - N/A   Clear
7:56 PM 48.0 °F - 7.0 °F 19% 29.91 in 10.0 mi NNE 8.1 mph - N/A   Clear
8:56 PM 45.0 °F 43.5 °F 10.9 °F 25% 29.91 in 10.0 mi NNW 3.5 mph - N/A   Clear
9:56 PM 36.0 °F - 7.0 °F 30% 29.93 in 10.0 mi Calm Calm - N/A   Clear
10:56 PM 33.1 °F 27.7 °F 10.0 °F 38% 29.92 in 10.0 mi WNW 5.8 mph - N/A   Clear
11:56 PM 30.9 °F 26.2 °F 8.1 °F 38% 29.94 in 10.0 mi North 4.6 mph - N/A   Clear